Location: Spears Village
(29.9615°N, 95.2834°W)
Time: 05:02:26
(UTC+00:00)

Envisat - Visible Passes

Search period start: 25 January 2020 00:00
Search period end: 04 February 2020 00:00
Orbit: 764 x 766 km, 98.1° (Epoch: 24 January)

Date Brightness Start Highest point End Pass type
(mag) Time Alt. Az. Time Alt. Az. Time Alt. Az.
25 Jan 4.0 00:43:22 10° S 00:48:16 51° W 00:53:13 10° NNW visible
26 Jan 6.5 01:50:32 10° W 01:50:51 10° W 01:51:11 10° W visible
26 Jan 4.8 12:21:45 10° NNE 12:26:23 35° E 12:31:00 10° SSE visible
27 Jan 5.3 01:09:36 10° SSW 01:13:49 27° W 01:18:05 10° NW visible
27 Jan 6.2 11:46:45 10° ENE 11:49:25 14° E 11:52:04 10° SE visible
28 Jan 3.4 00:31:56 10° S 00:36:58 68° WSW 00:42:02 10° NNW visible
28 Jan 3.5 12:46:50 10° NNE 12:51:54 69° ESE 12:56:57 10° S visible
29 Jan 6.2 01:36:54 10° SW 01:39:28 14° W 01:42:02 10° WNW visible
29 Jan 5.3 12:10:46 10° NE 12:15:03 27° E 12:19:19 10° SSE visible
30 Jan 4.8 00:57:54 10° SSW 01:02:29 35° W 01:07:07 10° NNW visible
30 Jan 6.5 11:37:13 10° E 11:38:02 10° E 11:38:52 10° ESE visible
31 Jan 3.1 00:20:37 10° SSE 00:25:41 88° WSW 00:30:47 10° NNW visible
31 Jan 4.0 12:35:39 10° NNE 12:40:36 52° E 12:45:32 10° S visible
01 Feb 5.9 01:24:38 10° SW 01:28:06 18° W 01:31:35 10° NW visible
01 Feb 5.8 11:59:55 10° NE 12:03:43 21° E 12:07:28 10° SE visible
02 Feb 4.2 00:46:20 10° S 00:51:10 46° W 00:56:03 10° NNW visible
03 Feb 4.6 12:24:33 10° NNE 12:29:18 39° E 12:34:02 10° SSE visible
